User: anonymous   Login
Location: Unspecified
(0.0000°N, 0.0000°E)
Time: 23:12:42
(UTC+02:00)
Language:

Gbstr 26 Del rocket - Orbit

View from above orbital plane
View from above orbital plane
View from above satellite
View from above satellite

Ground track
Ground track

The orbit data is extracted from the following two-line orbital elements,

1 25876U 99041E   17229.05578505 -.00000067  00000-0  28501-4 0  9991
2 25876  51.7660  76.7074 0531250 205.3652 152.0308 14.04071135923161
Epoch (UTC): 17 August 2017 01:20:19
Eccentricity: 0.0531250
inclination: 51.7660°
perigee height: 494 km
apogee height: 1265 km
right ascension of ascending node: 76.7074°
argument of perigee: 205.3652°
revolutions per day: 14.04071135
mean anomaly at epoch: 152.0308°
orbit number at epoch: 92316

The dashed part of the orbit path shows where the satellite is in the earth's shadow,  

DLR